Content
SEND FEEDBACK

Daily
Averages
Monthly
Summary
Turkmenistan

ASHGABAT, TURKMENISTAN


Home > Asia > Turkmenistan
Elevation: 775 feet     Latitude: 37 58N     Longitude: 058 20E

WEATHER
 
SELECT A DAY
Number of Records: 183,395;   Date Range: 3/15/97 - 12/17/14
 
SHARE

PRINT THIS DATA

[ ← Previous Day ]
WEATHER ALMANAC - MARCH 29, 2014
[ Next Day → ]
[ °C ]   °F
Weather ElementAverageHighLow
Temperature64.2 °F79 °F (5:00 pm)50 °F (5:00 am)
Dewpoint32.7 °F41 °F (11:00 pm)27 °F (5:00 pm)
Humidity31.4 %54 % (7:00 am)7 % (5:00 pm)
Barometer29.76 in29.86 in (2:00 am)29.65 in (8:00 pm)
Wind Speed7.4 mph13.4 mph (2:00 pm)
Weather ElementAverage
Visibility6 mi
Wind DirectionSSE (155.2 °)

Weather ElementTotal
Precipitation---
Heating Degree Days0.5 (Base 65)
Growing Degree Days14.5 (Base 50)
Averaged from 31 records on March 29, 2014
WEATHER CONDITIONS BREAKOUT
WIND DIRECTION BREAKOUT
WEATHER BY HOUR - MARCH 29, 2014
[ °C ]   °F
Local TimeTemperatureDewpointHumidityBarometerVisibilityWind DirectionWind SpeedGust SpeedPrecipitationEventsConditions
1:00 AM53.6 °F33.8 °F47 %29.83 in6.2 miSW (220°)4.5 mphClear
2:00 AM52.0 °F36.0 °F43 %29.86 in6.0 miSSW (210°)4.5 mphScattered Clouds
2:00 AM51.8 °F33.8 °F50 %29.83 in6.2 miSSW (210°)4.5 mphScattered Clouds
3:00 AM53.6 °F35.6 °F51 %29.83 in3.1 miSSW (200°)4.5 mphHaze
4:00 AM53.6 °F33.8 °F47 %29.83 in6.2 miSSW (210°)6.7 mphMostly Cloudy
5:00 AM50.0 °F35.0 °F46 %29.82 in6.0 miNorth (350°)6.7 mphPartly Cloudy
5:00 AM55.4 °F33.8 °F44 %29.80 in6.2 miSSW (200°)6.7 mphMostly Cloudy
6:00 AM53.6 °F35.6 °F51 %29.80 in6.2 miVariable2.2 mphMostly Cloudy
7:00 AM51.8 °F35.6 °F54 %29.83 in6.2 miNNW (330°)4.5 mphOvercast
8:00 AM52.0 °F34.0 °F38 %29.84 in6.0 miSSW (210°)2.2 mphScattered Clouds
8:00 AM53.6 °F35.6 °F51 %29.83 in6.2 miVariable2.2 mphMostly Cloudy
9:00 AM60.8 °F30.2 °F31 %29.83 in6.2 miVariable2.2 mphMostly Cloudy
10:00 AM64.4 °F28.4 °F26 %29.83 in6.2 miSE (140°)6.7 mphScattered Clouds
11:00 AM66.0 °F29.0 °F14 %29.82 in6.0 miSE (130°)6.7 mph
11:00 AM66.2 °F28.4 °F24 %29.80 in6.2 miESE (120°)6.7 mphClear
12:00 PM69.8 °F28.4 °F21 %29.77 in6.2 miESE (120°)8.9 mphClear
1:00 PM71.6 °F30.2 °F22 %29.74 in6.2 miEast (100°)11.2 mphScattered Clouds
2:00 PM74.0 °F31.0 °F11 %29.72 in6.0 miESE (110°)13.4 mphScattered Clouds
2:00 PM75.2 °F32.0 °F21 %29.71 in6.2 miEast (100°)13.4 mphScattered Clouds
3:00 PM77.0 °F30.2 °F18 %29.68 in6.2 miEast (90°)13.4 mphMostly Cloudy
4:00 PM78.8 °F30.2 °F17 %29.68 in6.2 miEast (100°)13.4 mphMostly Cloudy
5:00 PM79.0 °F27.0 °F7 %29.68 in6.0 miEast (100°)13.4 mphScattered Clouds
5:00 PM78.8 °F28.4 °F16 %29.68 in6.2 miESE (110°)13.4 mphMostly Cloudy
6:00 PM78.8 °F28.4 °F16 %29.68 in6.2 miEast (90°)11.2 mphMostly Cloudy
7:00 PM75.2 °F30.2 °F19 %29.68 in6.2 miESE (110°)8.9 mphMostly Cloudy
8:00 PM70.0 °F35.0 °F17 %29.68 in6.0 miSE (140°)6.7 mphOvercast
8:00 PM69.8 °F32.0 °F25 %29.65 in6.2 miSE (130°)6.7 mphOvercast
9:00 PM68.0 °F37.4 °F33 %29.68 in6.2 miSSE (150°)6.7 mphMostly Cloudy
10:00 PM62.6 °F37.4 °F39 %29.71 in6.2 miWest (280°)6.7 mphMostly Cloudy
11:00 PM62.0 °F41.0 °F35 %29.72 in6.0 miWNW (290°)6.7 mphPartly Cloudy
11:00 PM62.6 °F37.4 °F39 %29.71 in6.2 miWest (260°)4.5 mphMostly Cloudy
Hourly data recorded from UTAA, located miles away from Ashgabat, Turkmenistan







STORIES FROM OUR PARTNERS